Weather History for Hanford, CA

Change the Weather History Date:

Friday, March 21, 2014

  Actual Average Record
Temperature  
Mean Temperature 64 °F 56 °F  
Max Temperature 80 °F 69 °F 84 °F (2004)
Min Temperature 47 °F 43 °F 34 °F (2006)
Degree Days  
Heating Degree Days 1    
Month to date heating degree days 116  
Since 1 July heating degree days 1893  
Cooling Degree Days 0    
Month to date cooling degree days 0  
Year to date cooling degree days 0  
Growing Degree Days 14 (Base 50)    
Moisture  
Dew Point 40 °F    
Average Humidity 48    
Maximum Humidity 74    
Minimum Humidity 21    
Precipitation  
Precipitation 0.00 in 0.04 in 0.25 in (2011)
Month to date precipitation 0.01 1.23  
Year to date precipitation 1.77 5.00  
Since 1 July precipitation 2.16 8.34  
Snow  
Snow 0.00 in - - ()
Month to date snowfall 0.0  
Since 1 July snowfall 0.0  
Snow Depth 0.00 in    
Sea Level Pressure  
Sea Level Pressure 29.91 in    
Wind  
Wind Speed 8 mph (NW)    
Max Wind Speed 16 mph    
Max Gust Speed 23 mph    
Visibility 9 miles    
Events      
T = Trace of Precipitation, MM = Missing Value Source: NWS Daily Summary

Daily Weather History Graph

Daily Weather History Graph

Search for Another Location

Airport:

Trip Planner

Search our weather history database for the weather conditions in past years. The results will help you decide how hot, cold, wet, or windy it might be!

Date:

Astronomy

Mar. 21, 2014 Rise Set
Actual Time 7:00 AM PDT 7:11 PM PDT
Civil Twilight 6:34 AM PDT 7:36 PM PDT
Nautical Twilight 6:04 AM PDT 8:07 PM PDT
Astronomical Twilight 5:34 AM PDT 8:37 PM PDT
Moon No Moon Rise 10:04 AM PDT (3/21)
Length of Visible Light 13h 02m
Length of Day
12h 10m
Waning Gibbous, 74% of the Moon is Illuminated
Mar 21
Waning Gibbous
Mar 23
Last Quarter
Mar 30
New
Apr 7
First Quarter
Apr 15
Full

Hourly Weather History & Observations

Time (PDT) Temp. Dew Point Humidity Pressure Visibility Wind Dir Wind Speed Gust Speed Precip Events Conditions
12:53 AM 62.1 °F 44.1 °F 52% 29.92 in 10.0 mi West 3.5 mph - N/A   Clear
1:53 AM 61.0 °F 42.1 °F 50% 29.92 in 10.0 mi NNW 9.2 mph - N/A   Clear
2:53 AM 62.1 °F 37.9 °F 41% 29.91 in 10.0 mi NW 12.7 mph - N/A   Clear
3:53 AM 59.0 °F 39.9 °F 49% 29.89 in 10.0 mi NNW 8.1 mph - N/A   Clear
4:53 AM 53.1 °F 42.1 °F 66% 29.91 in 6.0 mi NE 4.6 mph - N/A   Haze
5:53 AM 50.0 °F 42.1 °F 74% 29.92 in 8.0 mi Calm Calm - N/A   Clear
6:53 AM 50.0 °F 41.0 °F 71% 29.92 in 10.0 mi West 3.5 mph - N/A   Clear
7:53 AM 51.1 °F 43.0 °F 74% 29.94 in 6.0 mi ENE 3.5 mph - N/A   Haze
8:53 AM 57.9 °F 45.0 °F 62% 29.94 in 9.0 mi Calm Calm - N/A   Clear
9:53 AM 62.1 °F 45.0 °F 53% 29.95 in 8.0 mi East 3.5 mph - N/A   Clear
10:53 AM 66.9 °F 42.1 °F 40% 29.95 in 10.0 mi Calm Calm - N/A   Clear
11:53 AM 71.1 °F 43.0 °F 36% 29.95 in 4.0 mi Variable 6.9 mph - N/A   Haze
12:53 PM 73.9 °F 41.0 °F 30% 29.93 in 10.0 mi West 8.1 mph - N/A   Clear
1:53 PM 77.0 °F 39.0 °F 25% 29.91 in 10.0 mi NW 4.6 mph - N/A   Clear
2:53 PM 78.1 °F 36.0 °F 22% 29.88 in 10.0 mi WNW 9.2 mph - N/A   Clear
3:53 PM 78.1 °F 35.1 °F 21% 29.87 in 10.0 mi West 6.9 mph - N/A   Clear
4:53 PM 79.0 °F 35.1 °F 20% 29.86 in 10.0 mi NW 8.1 mph - N/A   Clear
5:53 PM 78.1 °F 37.0 °F 23% 29.86 in 10.0 mi NNW 10.4 mph - N/A   Clear
6:53 PM 73.9 °F 39.0 °F 28% 29.86 in 10.0 mi NNW 12.7 mph - N/A   Clear
7:53 PM 70.0 °F 39.9 °F 33% 29.87 in 10.0 mi NNW 9.2 mph - N/A   Clear
8:53 PM 68.0 °F 39.0 °F 35% 29.88 in 5.0 mi NNW 9.2 mph - N/A   Haze
9:53 PM 64.9 °F 39.0 °F 39% 29.90 in 10.0 mi NNW 10.4 mph - N/A   Clear
10:53 PM 63.0 °F 37.9 °F 40% 29.91 in 10.0 mi NW 12.7 mph - N/A   Clear
11:53 PM 61.0 °F 35.1 °F 38% 29.93 in 10.0 mi NW 11.5 mph - N/A   Clear